"read_dt","SO2 (ppb)","flags","PMT voltage (V)","lamp voltage (V)","lamp intensity (Hz)","internal temp (C)","react chamber temp (C)","sample flow (l/min)","pres (mmHg)","SO2 bkg (ppb)","SO2 coefficient"
2016-04-04 00:00:00,1780E-3,5C000400,-0724,0835,12125,021.9,045.3,0.266,751.0,01.17,0.508
2016-04-04 00:01:00,1915E-3,5C000400,-0724,0835,12283,021.9,045.3,0.266,751.0,01.17,0.508
2016-04-04 00:02:00,1888E-3,5C000400,-0724,0835,12223,021.9,045.3,0.266,751.0,01.17,0.508
2016-04-04 00:03:00,1830E-3,5C000400,-0724,0834,12082,021.9,045.3,0.266,751.0,01.17,0.508
2016-04-04 00:04:00,1876E-3,5C000400,-0724,0835,12033,021.9,045.2,0.265,751.0,01.17,0.508
2016-04-04 00:05:00,1849E-3,5C000400,-0724,0835,12157,021.9,045.3,0.266,751.0,01.17,0.508
2016-04-04 00:06:00,1875E-3,5C000400,-0724,0835,12192,021.9,045.3,0.266,751.0,01.17,0.508
2016-04-04 00:07:00,1717E-3,5C000400,-0724,0834,12043,021.9,045.3,0.266,751.0,01.17,0.508
2016-04-04 00:08:00,1880E-3,5C000400,-0724,0834,12127,022.0,045.3,0.266,751.0,01.17,0.508
2016-04-04 00:09:00,1889E-3,5C000400,-0724,0835,12268,022.0,045.3,0.266,751.0,01.17,0.508
2016-04-04 00:10:00,1751E-3,5C000400,-0724,0835,12244,022.0,045.3,0.265,751.0,01.17,0.508
2016-04-04 00:11:00,1850E-3,5C000400,-0724,0834,12144,021.9,045.3,0.265,751.0,01.17,0.508
2016-04-04 00:12:00,1839E-3,5C000400,-0724,0834,12302,022.0,045.3,0.266,751.0,01.17,0.508
2016-04-04 00:13:00,1991E-3,5C000400,-0724,0833,12226,021.9,045.2,0.266,751.0,01.17,0.508
2016-04-04 00:14:00,1959E-3,5C000400,-0724,0834,12255,022.0,045.2,0.266,751.0,01.17,0.508
2016-04-04 00:15:00,1960E-3,5C000400,-0724,0834,12133,022.0,045.3,0.266,751.0,01.17,0.508
2016-04-04 00:16:00,1947E-3,5C000400,-0724,0835,12121,022.0,045.3,0.266,751.0,01.17,0.508
2016-04-04 00:17:00,1772E-3,5C000400,-0724,0834,12219,022.0,045.3,0.265,751.0,01.17,0.508
2016-04-04 00:18:00,1801E-3,5C000400,-0724,0835,12138,022.0,045.3,0.266,751.0,01.17,0.508
2016-04-04 00:19:00,1872E-3,5C000400,-0724,0835,12232,022.0,045.2,0.266,751.0,01.17,0.508
2016-04-04 00:20:00,1887E-3,5C000400,-0724,0834,12170,022.0,045.3,0.266,751.0,01.17,0.508
2016-04-04 00:21:00,1863E-3,5C000400,-0724,0834,12183,022.0,045.2,0.265,751.0,01.17,0.508
2016-04-04 00:22:00,1883E-3,5C000400,-0724,0835,12036,022.0,045.3,0.265,751.0,01.17,0.508
2016-04-04 00:23:00,2045E-3,5C000400,-0724,0835,12193,022.0,045.3,0.266,751.0,01.17,0.508
2016-04-04 00:24:00,2000E-3,5C000400,-0724,0835,12120,022.0,045.2,0.266,751.0,01.17,0.508
2016-04-04 00:25:00,1781E-3,5C000400,-0724,0835,12179,022.0,045.3,0.265,751.0,01.17,0.508
2016-04-04 00:26:00,1920E-3,5C000400,-0724,0835,12236,022.1,045.3,0.266,751.0,01.17,0.508
2016-04-04 00:27:00,1983E-3,5C000400,-0724,0835,12188,022.0,045.3,0.265,751.0,01.17,0.508
2016-04-04 00:28:00,1970E-3,5C000400,-0724,0835,12196,022.1,045.3,0.266,751.0,01.17,0.508
2016-04-04 00:29:00,1873E-3,5C000400,-0724,0834,12180,022.1,045.3,0.265,751.0,01.17,0.508
2016-04-04 00:30:00,2054E-3,5C000400,-0724,0834,12171,022.1,045.3,0.266,750.9,01.17,0.508
2016-04-04 00:31:00,1980E-3,5C000400,-0724,0835,12185,022.1,045.3,0.265,750.9,01.17,0.508
2016-04-04 00:32:00,1877E-3,5C000400,-0724,0834,12149,022.1,045.3,0.266,750.9,01.17,0.508
2016-04-04 00:33:00,1866E-3,5C000400,-0724,0835,12052,022.1,045.3,0.265,751.0,01.17,0.508
2016-04-04 00:34:00,1832E-3,5C000400,-0724,0835,12210,022.1,045.3,0.266,751.0,01.17,0.508
2016-04-04 00:35:00,1996E-3,5C000400,-0724,0834,12216,022.1,045.3,0.265,751.0,01.17,0.508
2016-04-04 00:36:00,1772E-3,5C000400,-0724,0834,12008,022.1,045.3,0.265,751.0,01.17,0.508
2016-04-04 00:37:00,1841E-3,5C000400,-0724,0834,12175,022.2,045.3,0.265,751.0,01.17,0.508
2016-04-04 00:38:00,1950E-3,5C000400,-0724,0835,12255,022.1,045.3,0.265,751.0,01.17,0.508
2016-04-04 00:39:00,1830E-3,5C000400,-0724,0834,12172,022.2,045.2,0.266,751.0,01.17,0.508
2016-04-04 00:40:00,2089E-3,5C000400,-0724,0835,12140,022.1,045.3,0.265,751.0,01.17,0.508
2016-04-04 00:41:00,1912E-3,5C000400,-0724,0834,12052,022.2,045.3,0.265,750.9,01.17,0.508
2016-04-04 00:42:00,1912E-3,5C000400,-0724,0834,12200,022.2,045.3,0.266,750.9,01.17,0.508
2016-04-04 00:43:00,1888E-3,5C000400,-0724,0834,12085,022.2,045.3,0.265,750.9,01.17,0.508
2016-04-04 00:44:00,1829E-3,5C000400,-0724,0834,12221,022.2,045.3,0.265,750.9,01.17,0.508
2016-04-04 00:45:00,1843E-3,5C000400,-0724,0834,12264,022.2,045.3,0.265,750.9,01.17,0.508
2016-04-04 00:46:00,1857E-3,5C000400,-0724,0835,12179,022.2,045.3,0.265,750.9,01.17,0.508
2016-04-04 00:47:00,1792E-3,5C000400,-0724,0834,12094,022.2,045.3,0.265,750.9,01.17,0.508
2016-04-04 00:48:00,1999E-3,5C000400,-0724,0834,11936,022.2,045.3,0.265,750.9,01.17,0.508
2016-04-04 00:49:00,1718E-3,5C000400,-0724,0835,12135,022.2,045.3,0.265,750.9,01.17,0.508
2016-04-04 00:50:00,1812E-3,5C000400,-0724,0835,11989,022.2,045.3,0.265,750.9,01.17,0.508
2016-04-04 00:51:00,1846E-3,5C000400,-0724,0834,12112,022.2,045.3,0.265,750.9,01.17,0.508
2016-04-04 00:52:00,1908E-3,5C000400,-0724,0835,12051,022.2,045.3,0.265,750.9,01.17,0.508
2016-04-04 00:53:00,1959E-3,5C000400,-0724,0835,12105,022.3,045.3,0.265,750.9,01.17,0.508
2016-04-04 00:54:00,1857E-3,5C000400,-0724,0834,12212,022.2,045.3,0.265,750.9,01.17,0.508
2016-04-04 00:55:00,1938E-3,5C000400,-0724,0835,12209,022.3,045.3,0.265,750.8,01.17,0.508
2016-04-04 00:56:00,1678E-3,5C000400,-0724,0835,12169,022.3,045.3,0.265,750.8,01.17,0.508
2016-04-04 00:57:00,1709E-3,5C000400,-0724,0835,12130,022.3,045.3,0.265,750.8,01.17,0.508
2016-04-04 00:58:00,1813E-3,5C000400,-0724,0834,12159,022.3,045.3,0.265,750.8,01.17,0.508
2016-04-04 00:59:00,1821E-3,5C000400,-0724,0834,12109,022.3,045.3,0.265,750.8,01.17,0.508
2016-04-04 01:00:00,1946E-3,5C000400,-0724,0835,12151,022.3,045.3,0.265,750.8,01.17,0.508
2016-04-04 01:01:00,1859E-3,5C000400,-0724,0835,12244,022.3,045.3,0.265,750.8,01.17,0.508
2016-04-04 01:02:00,1780E-3,5C000400,-0724,0835,11963,022.3,045.3,0.265,750.8,01.17,0.508
2016-04-04 01:03:00,1745E-3,5C000400,-0724,0834,12122,022.3,045.3,0.265,750.8,01.17,0.508
2016-04-04 01:04:00,1750E-3,5C000400,-0724,0835,12132,022.3,045.3,0.265,750.8,01.17,0.508
2016-04-04 01:05:00,1805E-3,5C000400,-0724,0834,11979,022.3,045.3,0.265,750.8,01.17,0.508
2016-04-04 01:06:00,1728E-3,5C000400,-0724,0835,12081,022.3,045.3,0.265,750.8,01.17,0.508
2016-04-04 01:07:00,1846E-3,5C000400,-0724,0835,12207,022.4,045.3,0.265,750.8,01.17,0.508
2016-04-04 01:08:00,1890E-3,5C000400,-0724,0835,12194,022.3,045.3,0.265,750.8,01.17,0.508
2016-04-04 01:09:00,1763E-3,5C000400,-0724,0835,12034,022.4,045.3,0.265,750.8,01.17,0.508
2016-04-04 01:10:00,1701E-3,5C000400,-0724,0834,12052,022.4,045.3,0.265,750.8,01.17,0.508
2016-04-04 01:11:00,1764E-3,5C000400,-0724,0834,12171,022.4,045.3,0.265,750.7,01.17,0.508
2016-04-04 01:12:00,1874E-3,5C000400,-0724,0834,12118,022.4,045.3,0.265,750.7,01.17,0.508
2016-04-04 01:13:00,1908E-3,5C000400,-0724,0835,12181,022.4,045.3,0.265,750.7,01.17,0.508
2016-04-04 01:14:00,1822E-3,5C000400,-0724,0833,12069,022.4,045.3,0.265,750.7,01.17,0.508
2016-04-04 01:15:00,1732E-3,5C000400,-0724,0834,12402,022.4,045.3,0.265,750.7,01.17,0.508
2016-04-04 01:16:00,1768E-3,5C000400,-0724,0834,12194,022.4,045.3,0.265,750.7,01.17,0.508
2016-04-04 01:17:00,1779E-3,5C000400,-0724,0835,12163,022.4,045.3,0.265,750.7,01.17,0.508
2016-04-04 01:18:00,1796E-3,5C000400,-0724,0835,12213,022.4,045.3,0.265,750.7,01.17,0.508
2016-04-04 01:19:00,1758E-3,5C000400,-0724,0835,12209,022.4,045.3,0.264,750.7,01.17,0.508
2016-04-04 01:20:00,1921E-3,5C000400,-0724,0835,12171,022.4,045.3,0.265,750.7,01.17,0.508
2016-04-04 01:21:00,1923E-3,5C000400,-0724,0834,12197,022.4,045.3,0.265,750.7,01.17,0.508
2016-04-04 01:22:00,1813E-3,5C000400,-0724,0834,12075,022.4,045.3,0.265,750.7,01.17,0.508
2016-04-04 01:23:00,1743E-3,5C000400,-0724,0836,12028,022.4,045.3,0.265,750.7,01.17,0.508
2016-04-04 01:24:00,1785E-3,5C000400,-0724,0835,12029,022.5,045.3,0.265,750.7,01.17,0.508
2016-04-04 01:25:00,1781E-3,5C000400,-0724,0834,12213,022.5,045.3,0.264,750.7,01.17,0.508
2016-04-04 01:26:00,1834E-3,5C000400,-0724,0835,12250,022.5,045.3,0.265,750.7,01.17,0.508
2016-04-04 01:27:00,1898E-3,5C000400,-0724,0835,12317,022.5,045.3,0.265,750.7,01.17,0.508
2016-04-04 01:28:00,1819E-3,5C000400,-0724,0835,12037,022.5,045.3,0.265,750.7,01.17,0.508
2016-04-04 01:29:00,1694E-3,5C000400,-0724,0835,12211,022.5,045.3,0.265,750.7,01.17,0.508
2016-04-04 01:30:00,1961E-3,5C000400,-0724,0835,12094,022.5,045.3,0.265,750.7,01.17,0.508
2016-04-04 01:31:00,1912E-3,5C000400,-0724,0834,12190,022.5,045.3,0.265,750.7,01.17,0.508
2016-04-04 01:32:00,1732E-3,5C000400,-0724,0835,12123,022.6,045.3,0.265,750.7,01.17,0.508
2016-04-04 01:33:00,1802E-3,5C000400,-0724,0834,12230,022.5,045.3,0.265,750.7,01.17,0.508
2016-04-04 01:34:00,1739E-3,5C000400,-0724,0834,12106,022.5,045.3,0.265,750.7,01.17,0.508
2016-04-04 01:35:00,1744E-3,5C000400,-0724,0836,12149,022.6,045.3,0.265,750.7,01.17,0.508
2016-04-04 01:36:00,1731E-3,5C000400,-0724,0835,12052,022.5,045.3,0.265,750.7,01.17,0.508
2016-04-04 01:37:00,1874E-3,5C000400,-0724,0835,12139,022.6,045.3,0.264,750.6,01.17,0.508
2016-04-04 01:38:00,1697E-3,5C000400,-0724,0835,12189,022.6,045.3,0.265,750.6,01.17,0.508
2016-04-04 01:39:00,1783E-3,5C000400,-0724,0835,12257,022.6,045.3,0.264,750.6,01.17,0.508
2016-04-04 01:40:00,1788E-3,5C000400,-0724,0835,12115,022.6,045.3,0.265,750.6,01.17,0.508
2016-04-04 01:41:00,1878E-3,5C000400,-0724,0834,11981,022.6,045.3,0.265,750.6,01.17,0.508
2016-04-04 01:42:00,1773E-3,5C000400,-0724,0835,12350,022.6,045.3,0.264,750.6,01.17,0.508
2016-04-04 01:43:00,1885E-3,5C000400,-0724,0834,12119,022.6,045.3,0.265,750.6,01.17,0.508
2016-04-04 01:44:00,1707E-3,5C000400,-0724,0835,12108,022.6,045.3,0.265,750.6,01.17,0.508
2016-04-04 01:45:00,1771E-3,5C000400,-0724,0835,12170,022.6,045.3,0.264,750.6,01.17,0.508
2016-04-04 01:46:00,1765E-3,5C000400,-0724,0835,12243,022.7,045.3,0.265,750.6,01.17,0.508
2016-04-04 01:47:00,1908E-3,5C000400,-0724,0835,12215,022.7,045.3,0.265,750.6,01.17,0.508
2016-04-04 01:48:00,1816E-3,5C000400,-0724,0836,12224,022.7,045.3,0.264,750.6,01.17,0.508
2016-04-04 01:49:00,1906E-3,5C000400,-0724,0835,12154,022.7,045.3,0.265,750.6,01.17,0.508
2016-04-04 01:50:00,1844E-3,5C000400,-0724,0835,12018,022.7,045.3,0.264,750.6,01.17,0.508
2016-04-04 01:51:00,1787E-3,5C000400,-0724,0835,12114,022.7,045.3,0.264,750.6,01.17,0.508
2016-04-04 01:52:00,1690E-3,5C000400,-0724,0834,12004,022.8,045.3,0.264,750.6,01.17,0.508
2016-04-04 01:53:00,1855E-3,5C000400,-0724,0835,12035,022.7,045.3,0.264,750.6,01.17,0.508
2016-04-04 01:54:00,1838E-3,5C000400,-0724,0835,12163,022.8,045.3,0.264,750.6,01.17,0.508
2016-04-04 01:55:00,1942E-3,5C000400,-0724,0835,12179,022.8,045.3,0.264,750.6,01.17,0.508
2016-04-04 01:56:00,1834E-3,5C000400,-0724,0834,12296,022.7,045.3,0.264,750.6,01.17,0.508
2016-04-04 01:57:00,1832E-3,5C000400,-0724,0835,12021,022.8,045.3,0.264,750.6,01.17,0.508
2016-04-04 01:58:00,1661E-3,5C000400,-0724,0835,12172,022.8,045.3,0.264,750.6,01.17,0.508
2016-04-04 01:59:00,1851E-3,5C000400,-0724,0835,12218,022.8,045.3,0.264,750.6,01.17,0.508
2016-04-04 02:00:00,1812E-3,5C000400,-0724,0835,12250,022.8,045.3,0.264,750.6,01.17,0.508
2016-04-04 02:01:00,1822E-3,5C000400,-0724,0835,12226,022.8,045.3,0.264,750.6,01.17,0.508
2016-04-04 02:02:00,1758E-3,5C000400,-0724,0834,12143,022.8,045.3,0.264,750.6,01.17,0.508
2016-04-04 02:03:00,1804E-3,5C000400,-0724,0834,12270,022.8,045.3,0.264,750.5,01.17,0.508
2016-04-04 02:04:00,1792E-3,5C000400,-0724,0834,12109,022.8,045.3,0.264,750.5,01.17,0.508
2016-04-04 02:05:00,1897E-3,5C000400,-0724,0834,12238,022.9,045.3,0.264,750.5,01.17,0.508
2016-04-04 02:06:00,1822E-3,5C000400,-0724,0834,12222,022.8,045.3,0.264,750.5,01.17,0.508
2016-04-04 02:07:00,1811E-3,5C000400,-0724,0834,12282,022.9,045.3,0.264,750.5,01.17,0.508
2016-04-04 02:08:00,1896E-3,5C000400,-0724,0835,12208,022.9,045.3,0.264,750.5,01.17,0.508
2016-04-04 02:09:00,1789E-3,5C000400,-0724,0835,12205,022.9,045.3,0.264,750.5,01.17,0.508
2016-04-04 02:10:00,1825E-3,5C000400,-0724,0835,12078,022.9,045.3,0.264,750.5,01.17,0.508
2016-04-04 02:11:00,1780E-3,5C000400,-0724,0834,12196,022.9,045.3,0.264,750.5,01.17,0.508
2016-04-04 02:12:00,2000E-3,5C000400,-0724,0835,12152,022.9,045.3,0.264,750.5,01.17,0.508
2016-04-04 02:13:00,1887E-3,5C000400,-0724,0834,12148,022.9,045.3,0.264,750.5,01.17,0.508
2016-04-04 02:14:00,1835E-3,5C000400,-0724,0834,11942,022.9,045.3,0.264,750.5,01.17,0.508
2016-04-04 02:15:00,1752E-3,5C000400,-0724,0835,12216,022.9,045.3,0.264,750.5,01.17,0.508
2016-04-04 02:16:00,1782E-3,5C000400,-0724,0834,12203,023.0,045.3,0.264,750.4,01.17,0.508
2016-04-04 02:17:00,1766E-3,5C000400,-0724,0835,12119,023.0,045.3,0.264,750.4,01.17,0.508
2016-04-04 02:18:00,1878E-3,5C000400,-0724,0835,12097,023.0,045.3,0.264,750.4,01.17,0.508
2016-04-04 02:19:00,1896E-3,5C000400,-0724,0834,12167,023.0,045.3,0.264,750.4,01.17,0.508
2016-04-04 02:20:00,1770E-3,5C000400,-0724,0834,12179,023.0,045.3,0.264,750.4,01.17,0.508
2016-04-04 02:21:00,1776E-3,5C000400,-0724,0835,12210,023.0,045.3,0.264,750.4,01.17,0.508
2016-04-04 02:22:00,1865E-3,5C000400,-0724,0835,12136,023.0,045.3,0.264,750.4,01.17,0.508
2016-04-04 02:23:00,1789E-3,5C000400,-0724,0835,12087,023.0,045.3,0.264,750.4,01.17,0.508
2016-04-04 02:24:00,1890E-3,5C000400,-0724,0835,12237,023.0,045.3,0.263,750.4,01.17,0.508
2016-04-04 02:25:00,1707E-3,5C000400,-0724,0835,12115,023.0,045.3,0.264,750.4,01.17,0.508
2016-04-04 02:26:00,1948E-3,5C000400,-0724,0835,12043,023.1,045.3,0.264,750.4,01.17,0.508
2016-04-04 02:27:00,1880E-3,5C000400,-0724,0834,12158,023.1,045.3,0.264,750.4,01.17,0.508
2016-04-04 02:28:00,1921E-3,5C000400,-0724,0835,11957,023.1,045.3,0.264,750.4,01.17,0.508
2016-04-04 02:29:00,1805E-3,5C000400,-0724,0834,11993,023.1,045.3,0.264,750.4,01.17,0.508
2016-04-04 02:30:00,1913E-3,5C000400,-0724,0835,12101,023.1,045.3,0.264,750.4,01.17,0.508
2016-04-04 02:31:00,1744E-3,5C000400,-0724,0835,12161,023.1,045.3,0.264,750.4,01.17,0.508
2016-04-04 02:32:00,1935E-3,5C000400,-0724,0835,12212,023.1,045.3,0.263,750.4,01.17,0.508
2016-04-04 02:33:00,1838E-3,5C000400,-0724,0834,12106,023.1,045.3,0.264,750.4,01.17,0.508
2016-04-04 02:34:00,1741E-3,5C000400,-0724,0834,12200,023.1,045.3,0.264,750.4,01.17,0.508
2016-04-04 02:35:00,1913E-3,5C000400,-0724,0834,12051,023.2,045.3,0.264,750.4,01.17,0.508
2016-04-04 02:36:00,1875E-3,5C000400,-0724,0834,12148,023.2,045.3,0.264,750.4,01.17,0.508
2016-04-04 02:37:00,1914E-3,5C000400,-0724,0835,12170,023.2,045.3,0.263,750.4,01.17,0.508
2016-04-04 02:38:00,1857E-3,5C000400,-0724,0835,12281,023.2,045.3,0.264,750.4,01.17,0.508
2016-04-04 02:39:00,1838E-3,5C000400,-0724,0836,12223,023.2,045.3,0.264,750.4,01.17,0.508
2016-04-04 02:40:00,2011E-3,5C000400,-0724,0835,12086,023.2,045.3,0.263,750.4,01.17,0.508
2016-04-04 02:41:00,1801E-3,5C000400,-0724,0835,12128,023.2,045.3,0.264,750.4,01.17,0.508
2016-04-04 02:42:00,1809E-3,5C000400,-0724,0834,12178,023.2,045.3,0.264,750.4,01.17,0.508
2016-04-04 02:43:00,1886E-3,5C000400,-0724,0835,12144,023.2,045.3,0.264,750.4,01.17,0.508
2016-04-04 02:44:00,1661E-3,5C000400,-0724,0835,12213,023.2,045.3,0.264,750.4,01.17,0.508
2016-04-04 02:45:00,1900E-3,5C000400,-0724,0835,12190,023.2,045.3,0.263,750.4,01.17,0.508
2016-04-04 02:46:00,1861E-3,5C000400,-0724,0835,12103,023.3,045.3,0.264,750.4,01.17,0.508
2016-04-04 02:47:00,1800E-3,5C000400,-0724,0836,12214,023.2,045.3,0.263,750.4,01.17,0.508
2016-04-04 02:48:00,1790E-3,5C000400,-0724,0835,12052,023.3,045.3,0.264,750.3,01.17,0.508
2016-04-04 02:49:00,1849E-3,5C000400,-0724,0835,12116,023.3,045.3,0.264,750.3,01.17,0.508
2016-04-04 02:50:00,1781E-3,5C000400,-0724,0835,12210,023.3,045.3,0.263,750.3,01.17,0.508
2016-04-04 02:51:00,1810E-3,5C000400,-0724,0835,12216,023.3,045.3,0.264,750.3,01.17,0.508
2016-04-04 02:52:00,1810E-3,5C000400,-0724,0834,12130,023.3,045.3,0.263,750.3,01.17,0.508
2016-04-04 02:53:00,1755E-3,5C000400,-0724,0835,12151,023.3,045.3,0.264,750.3,01.17,0.508
2016-04-04 02:54:00,1775E-3,5C000400,-0724,0834,12207,023.3,045.3,0.263,750.3,01.17,0.508
2016-04-04 02:55:00,1810E-3,5C000400,-0724,0835,12228,023.3,045.3,0.264,750.3,01.17,0.508
2016-04-04 02:56:00,1789E-3,5C000400,-0724,0835,12147,023.4,045.3,0.263,750.3,01.17,0.508
2016-04-04 02:57:00,1920E-3,5C000400,-0724,0835,12173,023.3,045.3,0.264,750.3,01.17,0.508
2016-04-04 02:58:00,1819E-3,5C000400,-0724,0835,12238,023.4,045.3,0.263,750.3,01.17,0.508
2016-04-04 02:59:00,1715E-3,5C000400,-0724,0835,12113,023.4,045.3,0.263,750.2,01.17,0.508
2016-04-04 03:00:00,1829E-3,5C000400,-0724,0835,12066,023.4,045.3,0.263,750.2,01.17,0.508
2016-04-04 03:01:00,1963E-3,5C000400,-0724,0834,12118,023.4,045.3,0.263,750.2,01.17,0.508
2016-04-04 03:02:00,1920E-3,5C000400,-0724,0835,12252,023.4,045.3,0.263,750.2,01.17,0.508
2016-04-04 03:03:00,1717E-3,5C000400,-0724,0834,12156,023.4,045.3,0.263,750.2,01.17,0.508
2016-04-04 03:04:00,1792E-3,5C000400,-0724,0834,12179,023.4,045.3,0.263,750.2,01.17,0.508
2016-04-04 03:05:00,1904E-3,5C000400,-0724,0835,12251,023.4,045.3,0.263,750.2,01.17,0.508
2016-04-04 03:06:00,1806E-3,5C000400,-0724,0835,12137,023.4,045.3,0.263,750.2,01.17,0.508
2016-04-04 03:07:00,1795E-3,5C000400,-0724,0835,12176,023.4,045.3,0.263,750.2,01.17,0.508
2016-04-04 03:08:00,1805E-3,5C000400,-0724,0835,12157,023.5,045.3,0.263,750.2,01.17,0.508
2016-04-04 03:09:00,1850E-3,5C000400,-0724,0834,12190,023.5,045.3,0.263,750.2,01.17,0.508
2016-04-04 03:10:00,1762E-3,5C000400,-0724,0835,12254,023.5,045.3,0.263,750.2,01.17,0.508
2016-04-04 03:11:00,1838E-3,5C000400,-0724,0835,12063,023.5,045.3,0.263,750.2,01.17,0.508
2016-04-04 03:12:00,1837E-3,5C000400,-0724,0835,12148,023.5,045.3,0.263,750.2,01.17,0.508
2016-04-04 03:13:00,1867E-3,5C000400,-0724,0835,12109,023.5,045.3,0.263,750.2,01.17,0.508
2016-04-04 03:14:00,1890E-3,5C000400,-0724,0835,12133,023.5,045.3,0.263,750.2,01.17,0.508
2016-04-04 03:15:00,1768E-3,5C000400,-0724,0835,12132,023.5,045.3,0.263,750.2,01.17,0.508
2016-04-04 03:16:00,1817E-3,5C000400,-0724,0835,12085,023.5,045.3,0.263,750.2,01.17,0.508
2016-04-04 03:17:00,1955E-3,5C000400,-0724,0835,12240,023.5,045.3,0.263,750.2,01.17,0.508
2016-04-04 03:18:00,1655E-3,5C000400,-0724,0834,12056,023.5,045.3,0.263,750.2,01.17,0.508
2016-04-04 03:19:00,1921E-3,5C000400,-0724,0835,12131,023.5,045.3,0.263,750.2,01.17,0.508
2016-04-04 03:20:00,1770E-3,5C000400,-0724,0836,12171,023.6,045.3,0.263,750.2,01.17,0.508
2016-04-04 03:21:00,1748E-3,5C000400,-0724,0834,12103,023.6,045.3,0.263,750.2,01.17,0.508
2016-04-04 03:22:00,1709E-3,5C000400,-0724,0836,12180,023.6,045.3,0.263,750.2,01.17,0.508
2016-04-04 03:23:00,1913E-3,5C000400,-0724,0834,12131,023.6,045.3,0.263,750.2,01.17,0.508
2016-04-04 03:24:00,1712E-3,5C000400,-0724,0835,12134,023.6,045.3,0.263,750.1,01.17,0.508
2016-04-04 03:25:00,1898E-3,5C000400,-0724,0835,12228,023.6,045.3,0.263,750.1,01.17,0.508
2016-04-04 03:26:00,1823E-3,5C000400,-0724,0835,12206,023.6,045.3,0.263,750.2,01.17,0.508
2016-04-04 03:27:00,1903E-3,5C000400,-0724,0835,12159,023.7,045.3,0.263,750.1,01.17,0.508
2016-04-04 03:28:00,1857E-3,5C000400,-0724,0835,11910,023.7,045.3,0.263,750.2,01.17,0.508
2016-04-04 03:29:00,1853E-3,5C000400,-0724,0835,12198,023.7,045.3,0.263,750.2,01.17,0.508
2016-04-04 03:30:00,1912E-3,5C000400,-0724,0835,12146,023.7,045.3,0.262,750.2,01.17,0.508
2016-04-04 03:31:00,1784E-3,5C000400,-0724,0834,12220,023.7,045.3,0.263,750.2,01.17,0.508
2016-04-04 03:32:00,1721E-3,5C000400,-0724,0836,12066,023.7,045.3,0.262,750.2,01.17,0.508
2016-04-04 03:33:00,1755E-3,5C000400,-0724,0834,12234,023.7,045.3,0.263,750.1,01.17,0.508
2016-04-04 03:34:00,1808E-3,5C000400,-0724,0834,12243,023.7,045.3,0.262,750.1,01.17,0.508
2016-04-04 03:35:00,1831E-3,5C000400,-0724,0835,12231,023.7,045.3,0.263,750.1,01.17,0.508
2016-04-04 03:36:00,1877E-3,5C000400,-0724,0835,12100,023.7,045.3,0.262,750.1,01.17,0.508
2016-04-04 03:37:00,1661E-3,5C000400,-0724,0834,12319,023.7,045.3,0.263,750.1,01.17,0.508
2016-04-04 03:38:00,1749E-3,5C000400,-0724,0835,12112,023.7,045.3,0.262,750.1,01.17,0.508
2016-04-04 03:39:00,1803E-3,5C000400,-0724,0835,12002,023.8,045.3,0.263,750.1,01.17,0.508
2016-04-04 03:40:00,1783E-3,5C000400,-0724,0835,12174,023.8,045.3,0.262,750.1,01.17,0.508
2016-04-04 03:41:00,1744E-3,5C000400,-0724,0834,12156,023.8,045.3,0.263,750.1,01.17,0.508
2016-04-04 03:42:00,1859E-3,5C000400,-0724,0835,12127,023.8,045.3,0.262,750.1,01.17,0.508
2016-04-04 03:43:00,1861E-3,5C000400,-0724,0836,12163,023.8,045.3,0.263,750.0,01.17,0.508
2016-04-04 03:44:00,1836E-3,5C000400,-0724,0835,12045,023.8,045.3,0.262,750.0,01.17,0.508
2016-04-04 03:45:00,1829E-3,5C000400,-0724,0834,11993,023.8,045.3,0.263,750.0,01.17,0.508
2016-04-04 03:46:00,1803E-3,5C000400,-0724,0834,12016,023.8,045.3,0.262,750.0,01.17,0.508
2016-04-04 03:47:00,1804E-3,5C000400,-0724,0835,12226,023.8,045.3,0.263,750.0,01.17,0.508
2016-04-04 03:48:00,1734E-3,5C000400,-0724,0835,12243,023.8,045.3,0.262,750.0,01.17,0.508
2016-04-04 03:49:00,1811E-3,5C000400,-0724,0835,11966,023.8,045.3,0.263,750.0,01.17,0.508
2016-04-04 03:50:00,1684E-3,5C000400,-0724,0834,12220,023.9,045.3,0.262,750.0,01.17,0.508
2016-04-04 03:51:00,1732E-3,5C000400,-0724,0834,12029,023.9,045.3,0.263,750.0,01.17,0.508
2016-04-04 03:52:00,1702E-3,5C000400,-0724,0835,12177,023.9,045.3,0.262,750.0,01.17,0.508
2016-04-04 03:53:00,1864E-3,5C000400,-0724,0834,11973,023.9,045.3,0.262,750.1,01.17,0.508
2016-04-04 03:54:00,1851E-3,5C000400,-0724,0835,12179,023.9,045.3,0.263,750.1,01.17,0.508
2016-04-04 03:55:00,1880E-3,5C000400,-0724,0835,12131,023.9,045.3,0.262,750.0,01.17,0.508
2016-04-04 03:56:00,1822E-3,5C000400,-0724,0835,12157,023.9,045.3,0.263,750.1,01.17,0.508
2016-04-04 03:57:00,1770E-3,5C000400,-0724,0834,12231,024.0,045.3,0.262,750.0,01.17,0.508
2016-04-04 03:58:00,1727E-3,5C000400,-0724,0835,12197,024.0,045.3,0.263,750.0,01.17,0.508
2016-04-04 03:59:00,1731E-3,5C000400,-0724,0835,12116,024.0,045.3,0.262,750.0,01.17,0.508
2016-04-04 04:00:00,1823E-3,5C000400,-0724,0834,12020,024.0,045.3,0.262,750.0,01.17,0.508
2016-04-04 04:01:00,1947E-3,5C000400,-0724,0835,12217,024.0,045.3,0.262,750.0,01.17,0.508
2016-04-04 04:02:00,1887E-3,5C000400,-0724,0835,12210,024.0,045.3,0.262,750.0,01.17,0.508
2016-04-04 04:03:00,1732E-3,5C000400,-0724,0834,11912,024.0,045.3,0.262,750.0,01.17,0.508
2016-04-04 04:04:00,1829E-3,5C000400,-0724,0835,12139,024.0,045.3,0.262,750.0,01.17,0.508
2016-04-04 04:05:00,1854E-3,5C000400,-0724,0835,12181,024.0,045.3,0.262,750.0,01.17,0.508
2016-04-04 04:06:00,1663E-3,5C000400,-0724,0835,12134,024.0,045.3,0.262,750.0,01.17,0.508
2016-04-04 04:07:00,1876E-3,5C000400,-0724,0835,12235,024.1,045.3,0.262,750.0,01.17,0.508
2016-04-04 04:08:00,1865E-3,5C000400,-0724,0835,12250,024.1,045.3,0.262,749.9,01.17,0.508
2016-04-04 04:09:00,1852E-3,5C000400,-0724,0835,12151,024.0,045.3,0.262,749.9,01.17,0.508
2016-04-04 04:10:00,1764E-3,5C000400,-0724,0835,12171,024.0,045.3,0.262,749.9,01.17,0.508
2016-04-04 04:11:00,1982E-3,5C000400,-0724,0835,12186,024.1,045.3,0.262,749.9,01.17,0.508
2016-04-04 04:12:00,1759E-3,5C000400,-0724,0834,12210,024.1,045.3,0.262,749.9,01.17,0.508
2016-04-04 04:13:00,1959E-3,5C000400,-0724,0835,12213,024.1,045.3,0.262,749.9,01.17,0.508
2016-04-04 04:14:00,1621E-3,5C000400,-0724,0834,12103,024.1,045.3,0.262,749.9,01.17,0.508
2016-04-04 04:15:00,1865E-3,5C000400,-0724,0834,12060,024.1,045.3,0.262,749.9,01.17,0.508
2016-04-04 04:16:00,1827E-3,5C000400,-0724,0834,12094,024.1,045.3,0.263,749.9,01.17,0.508
2016-04-04 04:17:00,1889E-3,5C000400,-0724,0835,12130,024.1,045.3,0.262,749.9,01.17,0.508
2016-04-04 04:18:00,1788E-3,5C000400,-0724,0835,12277,024.1,045.3,0.262,749.9,01.17,0.508
2016-04-04 04:19:00,1856E-3,5C000400,-0724,0835,12311,024.1,045.3,0.262,749.9,01.17,0.508
2016-04-04 04:20:00,1824E-3,5C000400,-0724,0835,12172,024.2,045.3,0.262,749.9,01.17,0.508